Regional Weather Roundup
Issued by NWS

Home | Current Version | Previous Version | Text Only | Print | Product List | Glossary On
Versions: 1 2 3 4 5 6 7 8 9 10 11 12 13 14 15 16 17 18 19 20 21 22 23 24 25 26 27 28 29 30 31 32 33 34 35 36 37 38 39 40 41 42 43 44 45 46 47 48 49 50
000
ASUS43 KDMX 080503
RWRIA

WEATHER ROUNDUP FOR IOWA
NATIONAL WEATHER SERVICE DES MOINES IA
1100 PM CST SUN FEB 07 2016

NOTE: "FAIR" INDICATES FEW OR NO CLOUDS BELOW 12,000 FEET WITH NO
SIGNIFICANT WEATHER AND/OR OBSTRUCTIONS TO VISIBILITY.

* - THESE STATIONS ARE NOT NWS STATIONS...THUS NOT UNDER NWS
QUALITY CONTROL.  THEY ALSO DO NOT REPORT WEATHER SUCH
AS PRECIPITATION OR FOG.

IAZ001>003-012>014-020>022-031>034-043>046-080600-
   NORTHWEST IOWA

CITY           SKY/WX    TMP DP  RH WIND       PRES   REMARKS
CARROLL *      CLOUDY    25  19  80 NW33G45   29.90R WCI   7
CHEROKEE *     LGT SNOW  25  23  93 N16G24    29.93F WCI  12
DENISON *      LGT SNOW  25  21  86 NW28G37   29.92R WCI   8
LE MARS *      LGT SNOW  27  27 100 N16G26    29.98S WCI  14
ORANGE CITY *  LGT SNOW  25  21  86 NW20G28   29.93F WCI  11
SHELDON *      SNOW      21  21 100 NW30G37   29.91F VSB 1/2 WCI   3
SIOUX CITY     FLURRIES  30  20  66 N35G47    29.97R WCI  14
SPENCER        CLOUDY    22  13  68 NW35G44   29.89R WCI   3
STORM LAKE *   CLOUDY    23  19  86 NW30G44   29.90S FOG     WCI   5
$$

IAZ055>058-069>071-079>083-090>094-080600-
   SOUTHWEST IOWA

CITY           SKY/WX    TMP DP  RH WIND       PRES   REMARKS
ATLANTIC *     FLURRIES  28  21  74 NW25G32   29.95R WCI  14
AUDUBON *      FLURRIES  27  19  74 NW18G32   29.92S WCI  13
CLARINDA *     LGT SNOW  32  30  93 NW10      29.99S WCI  24
COUNCIL BLFS * LGT SNOW  30  27  86 NW26G38   29.97R VSB 1   WCI  16
CRESTON *      FLURRIES  28  19  69 NW41G55   29.90S WCI  11
HARLAN  *      LGT SNOW  28  25  86 N25       29.98S WCI  14
LAMONI         CLOUDY    32  21  64 NW21G33   29.88F WCI  20
RED OAK *      LGT SNOW  30  28  93 N16G24    29.97F WCI  19
SHENANDOAH *   LGT SNOW  32  32 100 NW15G23   29.99S WCI  22
$$

IAZ047>049-059>061-072>074-084-080600-
   CENTRAL IOWA

CITY           SKY/WX    TMP DP  RH WIND       PRES   REMARKS
AMES           FLURRIES  29  23  78 NW23G33   29.83S WCI  15
ANKENY *       MIX PCPN  30  25  80 NW22G28   29.84S WCI  17
BOONE *        FLURRIES  28  21  74 NW18G31   29.83R WCI  16
CHARITON *     LGT RAIN  32  28  86 NW22G28   29.84F WCI  19
DES MOINES     FLURRIES  31  22  69 NW23G31   29.86R WCI  18
GRINNELL*      CLOUDY    32  28  86 NW25      29.79F WCI  18
KNOXVILLE *    FLURRIES  32  28  86 NW18G26   29.81F WCI  20
MARSHALLTOWN   CLOUDY    30  24  78 NW26G37   29.79R WCI  16
NEWTON *       LGT SNOW  32  30  93 NW25G35   29.80F WCI  19
PELLA *        FLURRIES  32  28  86 NW23G35   29.82F WCI  19
$$

IAZ004>006-015-016-023>025-035-036-080600-
   NORTH CENTRAL IOWA

CITY           SKY/WX    TMP DP  RH WIND       PRES   REMARKS
ALGONA *       CLOUDY    23  19  86 NW25G35   29.83S WCI   7
CLARION *      CLOUDY    23  19  86 NW30G37   29.82R HAZE    WCI   5
ESTHERVILLE    LGT SNOW  21  18  88 NW22G30   29.85S VSB 3/4 WCI   5
FORT DODGE *   CLOUDY    25  18  74 NW17G30   29.86R WCI  11
MASON CITY     CLOUDY    21  17  84 NW31G39   29.79S BLWGSNOWWCI   2
FOREST CITY *  CLOUDY    23  18  80 NW28G35   29.80S WCI   6
WEBSTER CITY * LGT SNOW  27  23  86 NW28      29.81S WCI  11
IOWA FALLS *   CLOUDY    28  24  86 NW24G32   29.81R WCI  13
$$

IAZ007>011-017>019-026>030-037>042-050>054-066-080600-
   NORTHEAST IOWA

CITY           SKY/WX    TMP DP  RH WIND       PRES   REMARKS
CEDAR RAPIDS   CLOUDY    33  31  92 NW21G29   29.73S WCI  21
CHARLES CITY * CLOUDY    25  19  80 NW33G40   29.75S HAZE    WCI   7
CLINTON *      CLOUDY    33  30  88 SW8       29.72F WCI  26
DECORAH *      CLOUDY    28  21  74 NW17G24   29.68S WCI  16
DUBUQUE        CLOUDY    33  31  92 W13       29.67F WCI  24
MONTICELLO *   CLOUDY    34  32  93 W13       29.70F WCI  25
OELWEIN *      CLOUDY    30  25  80 NW26G35   29.72S WCI  16
WATERLOO       CLOUDY    30  23  75 NW22G31   29.74F WCI  17
$$

IAZ064-065-067-068-078-080600-
   EAST CENTRAL IOWA

CITY           SKY/WX    TMP DP  RH WIND       PRES   REMARKS
DAVENPORT      CLOUDY    34  29  82 W13       29.73F WCI  25
IOWA CITY      CLOUDY    34  32  92 W14       29.77S WCI  25
MT. PLEASANT * CLOUDY    36  32  87 W10       29.79F WCI  28
MUSCATINE *    LGT SNOW  34  32  93 W14       29.77F WCI  24
QUAD CITIES    CLOUDY    35  28  75 W10       29.74F WCI  27
$$

IAZ062-063-075>077-085>089-095>099-080600-
   SOUTHEAST IOWA

CITY           SKY/WX    TMP DP  RH WIND       PRES   REMARKS
BURLINGTON     CLOUDY    34  30  85 W10       29.78F WCI  26
FAIRFIELD *    MIX PCPN  34  30  86 W12G17    29.79F WCI  25
FORT MADISON * CLOUDY    34  30  86 W10       29.81F WCI  26
KEOKUK *       CLOUDY    36  30  80 W10       29.81F WCI  28
OSKALOOSA *    LGT RAIN  32  30  93 NW22      29.80F WCI  19
OTTUMWA        MIX PCPN  33  31  92 NW17      29.80F WCI  22
WASHINGTON *   FLURRIES  34  32  93 W15       29.78F WCI  24
$$

ABBREVIATIONS USED IN REMARKS
   TC - TEMPERATURES IN CELSIUS
  WCI - WIND CHILL INDEX
   HX - HEAT INDEX
  VSB - VISIBILITY
$$




USA.gov is the U.S. government's official web portal to all federal, state and local government web resources and services.